| time (UTC) | temp F | wind direction | speed MPH | gust MPH | rain 1hr in | rain 24hr in | rain mn in | humidity % | barometer mb |
| 20260510201518 | 59 | 295 | 3.0 | 8.0 | 0.00 | 0.00 | 0.00 | 30 | 1015.3 |
| 20260510200018 | 60 | 328 | 4.0 | 11.0 | 0.00 | 0.00 | 0.00 | 31 | 1015.4 |
| 20260510194521 | 59 | 271 | 0.0 | 10.0 | 0.00 | 0.02 | 0.00 | 30 | 1015.5 |
| 20260510193016 | 58 | 302 | 2.0 | 8.0 | 0.00 | 0.02 | 0.00 | 31 | 1015.6 |
| 20260510191525 | 60 | 327 | 2.0 | 6.0 | 0.00 | 0.02 | 0.00 | 30 | 1015.7 |
| 20260510190028 | 58 | 271 | 5.0 | 11.0 | 0.00 | 0.02 | 0.00 | 31 | 1015.8 |
| 20260510184513 | 59 | 275 | 2.0 | 17.0 | 0.00 | 0.02 | 0.00 | 30 | 1015.6 |
| 20260510183010 | 59 | 232 | 3.0 | 9.0 | 0.00 | 0.02 | 0.00 | 30 | 1015.5 |
| 20260510181530 | 58 | 283 | 5.0 | 11.0 | 0.00 | 0.02 | 0.00 | 32 | 1015.3 |
| 20260510180013 | 58 | 336 | 7.0 | 12.0 | 0.00 | 0.02 | 0.00 | 32 | 1015.3 |
| 20260510174507 | 58 | 263 | 4.0 | 13.0 | 0.00 | 0.02 | 0.00 | 31 | 1015.3 |
| 20260510173011 | 57 | 271 | 4.0 | 13.0 | 0.00 | 0.02 | 0.00 | 33 | 1015.3 |
| 20260510171505 | 58 | 321 | 2.0 | 4.0 | 0.00 | 0.02 | 0.00 | 31 | 1015.3 |
| 20260510170003 | 57 | 306 | 2.0 | 9.0 | 0.00 | 0.02 | 0.00 | 31 | 1015.4 |
| 20260510164500 | 57 | 330 | 4.0 | 13.0 | 0.00 | 0.02 | 0.00 | 31 | 1015.5 |
| 20260510163106 | 57 | 320 | 4.0 | 12.0 | 0.00 | 0.02 | 0.00 | 33 | 1015.4 |
| 20260510161558 | 57 | 269 | 7.0 | 14.0 | 0.00 | 0.02 | 0.00 | 34 | 1015.3 |
| 20260510160057 | 56 | 306 | 4.0 | 11.0 | 0.00 | 0.02 | 0.00 | 34 | 1015.2 |
| 20260510154554 | 56 | 355 | 3.0 | 13.0 | 0.00 | 0.02 | 0.00 | 36 | 1015.1 |
| 20260510153055 | 56 | 296 | 5.0 | 14.0 | 0.00 | 0.02 | 0.00 | 37 | 1014.9 |
| 20260510151558 | 55 | 311 | 1.0 | 11.0 | 0.00 | 0.02 | 0.00 | 39 | 1014.8 |
| 20260510150049 | 54 | 281 | 6.0 | 11.0 | 0.00 | 0.02 | 0.00 | 36 | 1014.7 |
| 20260510144552 | 54 | 303 | 2.0 | 8.0 | 0.00 | 0.02 | 0.00 | 41 | 1014.6 |
| 20260510143047 | 53 | 288 | 4.0 | 8.0 | 0.00 | 0.02 | 0.00 | 41 | 1014.5 |
| 20260510141547 | 53 | 31 | 2.0 | 6.0 | 0.00 | 0.02 | 0.00 | 41 | 1014.4 |
| 20260510140046 | 51 | 279 | 4.0 | 8.0 | 0.00 | 0.02 | 0.00 | 45 | 1014.3 |
| 20260510134552 | 51 | 360 | 0.0 | 5.0 | 0.00 | 0.02 | 0.00 | 47 | 1014.3 |
| 20260510133045 | 51 | 317 | 0.0 | 4.0 | 0.00 | 0.02 | 0.00 | 48 | 1014.3 |
| 20260510131543 | 50 | 346 | 0.0 | 5.0 | 0.00 | 0.02 | 0.00 | 49 | 1014.2 |
| 20260510130042 | 50 | 360 | 1.0 | 5.0 | 0.00 | 0.02 | 0.00 | 47 | 1014.0 |
| 20260510124541 | 50 | 15 | 0.0 | 4.0 | 0.00 | 0.02 | 0.00 | 49 | 1013.9 |
| 20260510123038 | 49 | 348 | 0.0 | 3.0 | 0.00 | 0.02 | 0.00 | 49 | 1013.7 |
| 20260510121537 | 48 | 348 | 0.0 | 3.0 | 0.00 | 0.02 | 0.00 | 52 | 1013.5 |
| 20260510120037 | 46 | 348 | 0.0 | 3.0 | 0.00 | 0.02 | 0.00 | 55 | 1013.4 |
| 20260510114534 | 45 | 346 | 2.0 | 4.0 | 0.00 | 0.02 | 0.00 | 56 | 1013.2 |
| 20260510113031 | 44 | 360 | 0.0 | 4.0 | 0.00 | 0.02 | 0.00 | 49 | 1013.0 |
| 20260510111535 | 42 | 355 | 0.0 | 0.0 | 0.00 | 0.02 | 0.00 | 38 | 1012.7 |
| 20260510110035 | 41 | 355 | 0.0 | 1.0 | 0.00 | 0.02 | 0.00 | 30 | 1012.5 |
| 20260510104524 | 41 | 355 | 0.0 | 0.0 | 0.00 | 0.02 | 0.00 | 38 | 1012.4 |
| 20260510103021 | 41 | 355 | 0.0 | 0.0 | 0.00 | 0.02 | 0.00 | 46 | 1012.2 |
| 20260510101517 | 42 | 355 | 0.0 | 0.0 | 0.00 | 0.02 | 0.00 | 54 | 1011.9 |
| 20260510100013 | 43 | 355 | 0.0 | 0.0 | 0.00 | 0.02 | 0.00 | 57 | 1011.7 |
| 20260510094513 | 44 | 355 | 0.0 | 0.0 | 0.00 | 0.02 | 0.00 | 58 | 1011.7 |
| 20260510093009 | 45 | 355 | 0.0 | 1.0 | 0.00 | 0.02 | 0.00 | 58 | 1011.7 |
| 20260510091505 | 45 | 360 | 0.0 | 4.0 | 0.00 | 0.02 | 0.00 | 58 | 1011.4 |
| 20260510090002 | 45 | 360 | 0.0 | 5.0 | 0.00 | 0.02 | 0.00 | 57 | 1011.1 |
| 20260510084601 | 46 | 18 | 0.0 | 1.0 | 0.00 | 0.02 | 0.00 | 57 | 1010.8 |
| 20260510083101 | 47 | 12 | 3.0 | 8.0 | 0.00 | 0.02 | 0.00 | 56 | 1010.3 |
| 20260510081550 | 47 | 360 | 0.0 | 6.0 | 0.00 | 0.02 | 0.00 | 56 | 1010.0 |
| 20260510080046 | 48 | 16 | 1.0 | 6.0 | 0.00 | 0.02 | 0.00 | 56 | 1009.5 |
| 20260510074556 | 48 | 360 | 1.0 | 8.0 | 0.00 | 0.02 | 0.00 | 56 | 1009.0 |
| 20260510073046 | 48 | 21 | 2.0 | 4.0 | 0.00 | 0.02 | 0.00 | 56 | 1008.8 |
| 20260510071545 | 49 | 360 | 0.0 | 5.0 | 0.00 | 0.02 | 0.00 | 56 | 1008.5 |
| 20260510070034 | 49 | 360 | 0.0 | 0.0 | 0.00 | 0.02 | 0.00 | 54 | 1008.1 |
| 20260510064531 | 49 | 360 | 0.0 | 0.0 | 0.00 | 0.02 | 0.00 | 54 | 1008.1 |
| 20260510063029 | 50 | 360 | 0.0 | 0.0 | 0.00 | 0.02 | 0.00 | 55 | 1008.1 |
| 20260510061527 | 50 | 360 | 0.0 | 0.0 | 0.00 | 0.02 | 0.00 | 56 | 1007.9 |
| 20260510060030 | 50 | 360 | 0.0 | 0.0 | 0.00 | 0.02 | 0.00 | 55 | 1007.9 |
| 20260510054526 | 51 | 360 | 0.0 | 0.0 | 0.00 | 0.02 | 0.00 | 56 | 1007.7 |
| 20260510053020 | 51 | 360 | 0.0 | 0.0 | 0.00 | 0.02 | 0.00 | 56 | 1007.4 |
| 20260510051523 | 52 | 360 | 0.0 | 0.0 | 0.00 | 0.02 | 0.00 | 56 | 1007.1 |
| 20260510050013 | 53 | 360 | 0.0 | 0.0 | 0.00 | 0.02 | 0.00 | 56 | 1006.6 |
| 20260510044518 | 54 | 360 | 0.0 | 0.0 | 0.00 | 0.02 | 0.00 | 54 | 1006.5 |
| 20260510043007 | 55 | 360 | 0.0 | 0.0 | 0.00 | 0.02 | 0.00 | 52 | 1006.2 |
| 20260510041502 | 56 | 322 | 0.0 | 3.0 | 0.00 | 0.02 | 0.00 | 51 | 1006.1 |
| 20260510040100 | 56 | 360 | 0.0 | 5.0 | 0.00 | 0.02 | 0.00 | 50 | 1006.0 |
| 20260510034555 | 57 | 360 | 1.0 | 6.0 | 0.00 | 0.02 | 0.02 | 48 | 1005.8 |
| 20260510033055 | 58 | 360 | 2.0 | 6.0 | 0.00 | 0.02 | 0.02 | 47 | 1005.5 |
| 20260510031546 | 59 | 360 | 2.0 | 10.0 | 0.00 | 0.02 | 0.02 | 45 | 1005.3 |
| 20260510030048 | 59 | 360 | 2.0 | 11.0 | 0.00 | 0.02 | 0.02 | 44 | 1004.9 |
| 20260510024549 | 60 | 360 | 5.0 | 13.0 | 0.00 | 0.02 | 0.02 | 43 | 1004.7 |
| 20260510023034 | 61 | 360 | 4.0 | 16.0 | 0.00 | 0.02 | 0.02 | 43 | 1004.4 |
| 20260510021534 | 62 | 360 | 3.0 | 8.0 | 0.00 | 0.02 | 0.02 | 46 | 1003.8 |
| 20260510020034 | 62 | 323 | 1.0 | 6.0 | 0.00 | 0.02 | 0.02 | 49 | 1003.4 |
| 20260510014532 | 61 | 284 | 0.0 | 3.0 | 0.00 | 0.02 | 0.02 | 51 | 1002.9 |
| 20260510013033 | 61 | 279 | 0.0 | 0.0 | 0.00 | 0.02 | 0.02 | 50 | 1002.3 |
| 20260510011537 | 63 | 281 | 0.0 | 0.0 | 0.00 | 0.02 | 0.02 | 46 | 1001.8 |
| 20260510010037 | 64 | 281 | 0.0 | 0.0 | 0.00 | 0.02 | 0.02 | 43 | 1001.6 |
| 20260510004529 | 65 | 282 | 0.0 | 5.0 | 0.00 | 0.02 | 0.02 | 41 | 1001.4 |
| 20260510003032 | 66 | 281 | 2.0 | 7.0 | 0.00 | 0.02 | 0.02 | 39 | 1001.3 |
| 20260510001529 | 67 | 360 | 4.0 | 9.0 | 0.00 | 0.02 | 0.02 | 38 | 1001.1 |
| 20260510000028 | 68 | 285 | 5.0 | 17.0 | 0.00 | 0.02 | 0.02 | 36 | 1000.9 |
| 20260509234528 | 68 | 277 | 6.0 | 11.0 | 0.00 | 0.02 | 0.02 | 34 | 1000.8 |
| 20260509233027 | 68 | 285 | 6.0 | 18.0 | 0.00 | 0.02 | 0.02 | 34 | 1000.6 |
| 20260509231531 | 69 | 304 | 5.0 | 20.0 | 0.00 | 0.02 | 0.02 | 34 | 1000.6 |
| 20260509230019 | 69 | 294 | 9.0 | 26.0 | 0.00 | 0.02 | 0.02 | 33 | 1000.5 |
| 20260509224514 | 69 | 261 | 8.0 | 18.0 | 0.00 | 0.02 | 0.02 | 33 | 1000.3 |
| 20260509223014 | 69 | 273 | 6.0 | 16.0 | 0.00 | 0.02 | 0.02 | 32 | 1000.3 |
| 20260509221518 | 70 | 291 | 10.0 | 19.0 | 0.00 | 0.02 | 0.02 | 31 | 999.9 |
| 20260509220001 | 70 | 304 | 10.0 | 25.0 | 0.00 | 0.02 | 0.02 | 34 | 999.7 |
| 20260509214557 | 70 | 284 | 9.0 | 23.0 | 0.00 | 0.02 | 0.02 | 36 | 999.5 |
| 20260509213054 | 71 | 257 | 9.0 | 17.0 | 0.00 | 0.02 | 0.02 | 35 | 999.1 |
| 20260509211549 | 70 | 270 | 4.0 | 21.0 | 0.00 | 0.02 | 0.02 | 39 | 999.2 |
| 20260509210055 | 70 | 308 | 3.0 | 16.0 | 0.00 | 0.02 | 0.02 | 42 | 999.4 |
| 20260509204540 | 68 | 289 | 7.0 | 15.0 | 0.00 | 0.02 | 0.02 | 43 | 999.5 |
| 20260509203041 | 68 | 279 | 5.0 | 16.0 | 0.01 | 0.02 | 0.02 | 46 | 999.6 |